Content
SEND FEEDBACK

Daily
Averages
Monthly
Summary
United States of America

BEAVER ISLAND, MICHIGAN


Home > North America > United States > Michigan
Elevation: 627 feet     Latitude: 45 43N     Longitude: 085 31W

WEATHER
 
SELECT A DAY
Number of Records: 328,669;   Date Range: 9/12/01 - 10/30/14
 
SHARE

PRINT THIS DATA

[ ← Previous Day ]
WEATHER ALMANAC - JANUARY 26, 2014
[ Next Day → ]
[ °C ]   °F
Weather ElementAverageHighLow
Temperature8.9 °F14 °F (1:55 pm)4.8 °F (11:15 pm)
Dewpoint4.2 °F11.3 °F (6:55 pm)-3.3 °F (12:56 am)
Humidity81.3 %89 % (6:55 pm)64 % (1:15 am)
Barometer29.40 in29.62 in (12:35 am)29.22 in (5:35 pm)
Wind Speed4.5 mph15 mph (7:15 pm)
Wind Gust20.7 mph (7:15 pm)
Weather ElementAverage
Visibility4.4 mi
Wind DirectionSSE (154.2 °)

Weather ElementTotal
Precipitation---
Heating Degree Days55.6 (Base 65)
Averaged from 71 records on January 26, 2014
WEATHER CONDITIONS BREAKOUT
WIND DIRECTION BREAKOUT
WEATHER BY HOUR - JANUARY 26, 2014
[ °C ]   °F
Local TimeTemperatureDewpointHumidityBarometerVisibilityWind DirectionWind SpeedGust SpeedPrecipitationEventsConditions
12:35 AM6.3 °F-2.6 °F67 %29.62 in10.0 miWest (280°)12.7 mph19.6 mphMostly Cloudy
12:56 AM6.3 °F-3.3 °F65 %29.61 in10.0 miWest (270°)12.7 mph16.1 mphMostly Cloudy
1:15 AM6.6 °F-3.1 °F64 %29.61 in10.0 miWest (270°)10.4 mph16.1 mphOvercast
1:35 AM6.6 °F-2.4 °F67 %29.59 in10.0 miWest (280°)11.5 mph16.1 mphOvercast
1:55 AM7.0 °F-2.6 °F65 %29.59 in10.0 miWest (280°)6.9 mphOvercast
2:15 AM6.8 °F-2.4 °F66 %29.58 in10.0 miWNW (290°)9.2 mphOvercast
2:35 AM7.3 °F-2.4 °F65 %29.57 in10.0 miWNW (290°)6.9 mphOvercast
2:55 AM7.3 °F-2.0 °F66 %29.57 in10.0 miWest (280°)4.6 mphOvercast
3:16 AM7.5 °F-2.2 °F65 %29.56 in10.0 miCalmOvercast
3:35 AM6.8 °F-0.6 °F72 %29.56 in10.0 miNW (320°)8.1 mphOvercast
3:55 AM6.6 °F-0.4 °F73 %29.55 in10.0 miNW (320°)6.9 mphOvercast
4:16 AM6.6 °F-0.9 °F71 %29.55 in10.0 miNW (320°)3.5 mphOvercast
4:35 AM6.6 °F-1.3 °F70 %29.56 in10.0 miNW (320°)4.6 mphOvercast
4:55 AM6.8 °F-0.4 °F72 %29.56 in7.0 miNW (320°)3.5 mphOvercast
5:16 AM6.8 °F0.5 °F75 %29.56 in7.0 miNNW (340°)3.5 mphOvercast
5:35 AM7.5 °F0.9 °F74 %29.56 in10.0 miCalmOvercast
5:55 AM6.8 °F1.2 °F78 %29.55 in10.0 miCalmOvercast
6:15 AM5.9 °F0.5 °F78 %29.54 in10.0 miCalmOvercast
6:35 AM5.7 °F0.9 °F80 %29.54 in10.0 miEast (80°)4.6 mphOvercast
6:56 AM5.5 °F0.9 °F81 %29.53 in10.0 miCalmOvercast
7:15 AM5.4 °F0.9 °F82 %29.52 in10.0 miCalmOvercast
7:35 AM5.4 °F1.0 °F82 %29.51 in2.5 miCalmSnowLight Snow
7:56 AM5.4 °F1.4 °F84 %29.50 in2.0 miCalmSnowLight Snow
8:15 AM5.4 °F1.9 °F86 %29.50 in1.0 miCalmSnowLight Snow
8:35 AM5.0 °F1.6 °F86 %29.50 in1.0 miCalmSnowLight Snow
8:56 AM5.4 °F1.9 °F86 %29.48 in1.2 miCalmSnowLight Snow
9:15 AM5.9 °F2.3 °F85 %29.47 in1.2 miCalmSnowLight Snow
9:35 AM6.8 °F3.2 °F85 %29.45 in1.2 miCalmSnowLight Snow
9:55 AM8.2 °F4.6 °F85 %29.42 in1.5 miNE (50°)3.5 mphSnowLight Snow
10:15 AM9.3 °F5.4 °F84 %29.41 in1.8 miENE (70°)3.5 mphSnowLight Snow
10:35 AM9.5 °F5.9 °F85 %29.41 in1.0 miCalmSnowLight Snow
10:55 AM10.4 °F6.8 °F85 %29.42 in0.5 miCalmSnowSnow
11:15 AM10.2 °F6.8 °F86 %29.40 in0.5 miCalmSnowSnow
11:36 AM10.6 °F7.0 °F85 %29.40 in0.5 miCalmSnowSnow
11:55 AM10.8 °F7.2 °F85 %29.39 in0.5 miCalmSnowSnow
12:15 PM11.3 °F7.5 °F85 %29.38 in0.5 miCalmSnowSnow
12:36 PM11.5 °F8.1 °F86 %29.35 in0.5 miCalmSnowSnow
12:55 PM12.9 °F9.3 °F86 %29.33 in1.0 miSSW (200°)4.6 mphSnowLight Snow
1:15 PM13.8 °F9.3 °F82 %29.31 in1.5 miSSE (160°)5.8 mphSnowLight Snow
1:35 PM13.8 °F9.5 °F83 %29.29 in0.8 miSSE (150°)6.9 mphSnowLight Snow
1:55 PM14.0 °F9.5 °F82 %29.28 in0.8 miSSE (150°)5.8 mphSnowLight Snow
2:16 PM14.0 °F10.2 °F85 %29.26 in1.0 miSouth (170°)6.9 mphSnowLight Snow
2:35 PM14.0 °F10.0 °F84 %29.25 in1.0 miSSE (150°)4.6 mphSnowLight Snow
2:55 PM13.8 °F9.9 °F84 %29.25 in1.0 miSE (130°)8.1 mphSnowLight Snow
3:16 PM13.6 °F9.5 °F84 %29.25 in1.5 miSE (130°)6.9 mphSnowLight Snow
3:35 PM13.8 °F10.0 °F85 %29.24 in1.0 miSE (130°)5.8 mphSnowLight Snow
3:55 PM14.0 °F10.4 °F86 %29.24 in0.5 miESE (120°)6.9 mphSnowSnow
4:15 PM13.8 °F10.4 °F86 %29.23 in0.5 miSE (130°)6.9 mphSnowSnow
4:35 PM14.0 °F10.9 °F88 %29.23 in0.5 miESE (120°)5.8 mphSnowSnow
4:56 PM14.0 °F11.1 °F88 %29.23 in0.5 miSE (130°)8.1 mphSnowSnow
5:15 PM14.0 °F11.1 °F88 %29.23 in0.5 miESE (110°)5.8 mphSnowSnow
5:35 PM14.0 °F10.9 °F88 %29.22 in0.5 miESE (110°)6.9 mphSnowSnow
5:56 PM14.0 °F10.9 °F88 %29.22 in0.8 miESE (110°)5.8 mphSnowSnow
6:15 PM13.8 °F10.8 °F88 %29.22 in1.0 miESE (110°)3.5 mphSnowSnow
6:35 PM14.0 °F11.1 °F88 %29.23 in0.8 miCalmSnowSnow
6:55 PM14.0 °F11.3 °F89 %29.23 in1.5 miWSW (240°)4.6 mphSnowLight Snow
7:15 PM12.9 °F9.7 °F87 %29.24 in0.5 miNorth (350°)15.0 mph20.7 mphSnowHeavy Snow
7:36 PM7.3 °F3.9 °F86 %29.29 inNNW (330°)10.4 mph18.4 mphOvercast
7:55 PM7.7 °F4.5 °F87 %29.30 inNW (320°)8.1 mph17.3 mphOvercast
8:15 PM8.1 °F4.6 °F86 %29.31 inNNW (340°)8.1 mphOvercast
8:35 PM7.7 °F4.5 °F87 %29.32 inWNW (300°)5.8 mph
8:55 PM7.7 °F4.1 °F85 %29.33 inWNW (300°)6.9 mphSnowLight Snow
9:15 PM6.8 °F3.2 °F85 %29.34 in3.0 miWNW (300°)9.2 mphSnowLight Snow
9:35 PM5.9 °F2.1 °F84 %29.35 in10.0 miWNW (290°)8.1 mphMostly Cloudy
9:55 PM5.4 °F1.4 °F84 %29.35 in10.0 miWest (280°)5.8 mphMostly Cloudy
10:15 PM5.5 °F1.9 °F85 %29.35 in7.0 miCalmSnowLight Snow
10:35 PM5.5 °F2.3 °F86 %29.36 in1.8 miWNW (300°)3.5 mphSnowLight Snow
10:56 PM5.4 °F2.1 °F86 %29.36 in4.0 miWest (270°)3.5 mphSnowLight Snow
11:15 PM4.8 °F1.6 °F86 %29.37 in5.0 miCalmSnowLight Snow
11:35 PM5.5 °F1.9 °F85 %29.39 in7.0 miNW (310°)5.8 mphSnowLight Snow
11:55 PM5.7 °F2.3 °F86 %29.41 in3.0 miNNW (330°)4.6 mphSnowLight Snow
Hourly data recorded from KSJX, located miles away from Beaver Island, Michigan







STORIES FROM OUR PARTNERS